Regional Weather Roundup
Issued by NWS

Current Version | Previous Version | Text Only | Print | Product List | Glossary On
Versions: 1 2 3 4 5 6 7 8 9 10 11 12 13 14 15 16 17 18 19 20 21 22 23 24 25 26 27 28 29 30 31 32 33 34 35 36 37 38 39 40 41 42 43 44 45 46 47 48 49 50
000
ASUS43 KOAX 011910
RWRNE

WEATHER ROUNDUP FOR NEBRASKA
NATIONAL WEATHER SERVICE OMAHA NE
200 PM CDT SAT OCT 01 2016

NOTES: SATELLITE DATA IS BEING USED TO AUGMENT CLOUD COVER ABOVE
       12000 FEET.
       "FAIR" INDICATES FEW OR NO CLOUDS BELOW 12,000 FEET WITH NO
       SIGNIFICANT WEATHER AND/OR OBSTRUCTIONS TO VISIBILITY.

  * THESE STATIONS DO NOT REPORT WEATHER SUCH AS RAIN...SNOW OR FOG.

NEZ001>004-019>022-054>056-012000-
NEBRASKA PANHANDLE

CITY           SKY/WX    TMP DP  RH WIND       PRES   REMARKS
SCOTTSBLUFF    SUNNY     77  47  34 SW5       30.03F
ALLIANCE       SUNNY     79  46  31 S12G21    30.02F
CHADRON        SUNNY     80  48  32 VRB6      29.97F
KIMBALL        SUNNY     77  46  33 SE7       30.08F
SIDNEY         SUNNY     77  46  33 S14       30.07F
$$

NEZ057>060-069>072-079>082-012000-
SOUTHWEST NEBRASKA

CITY           SKY/WX    TMP DP  RH WIND       PRES   REMARKS
NORTH PLATTE   SUNNY     75  49  39 S10       30.06F
IMPERIAL       SUNNY     74  48  39 S17       30.07F
LEXINGTON      SUNNY     73  47  39 S10       30.07F
MCCOOK         SUNNY     75  50  41 S12G21    30.06F
OGALLALA       SUNNY     79  47  32 S15       30.04F
$$

NEZ005>010-023>029-035>040-094-012000-
NORTH CENTRAL NEBRASKA

CITY           SKY/WX    TMP DP  RH WIND       PRES   REMARKS
VALENTINE      CLOUDY    76  49  38 S16       30.01F
AINSWORTH      SUNNY     76  51  41 S14G22    30.03F
BROKEN BOW     SUNNY     74  49  41 S13       30.06F
O`NEILL        SUNNY     73  44  35 S13       30.07F
ORD            SUNNY     71  46  40 SE9       30.07F
THEDFORD       MOSUNNY   76  51  41 S13G18    30.05F
$$

NEZ041-046>049-061>064-073>077-083>087-012000-
SOUTH CENTRAL NEBRASKA

CITY           SKY/WX    TMP DP  RH WIND       PRES   REMARKS
GRAND ISLAND   SUNNY     71  47  42 E8        30.09F
AURORA         MOSUNNY   69  50  51 CALM      30.10F
HASTINGS       CLOUDY    72  46  39 S7        30.09F
HEBRON         MOSUNNY   71  49  44 E5        30.09F
HOLDREGE       SUNNY     73  45  37 SE7       30.08F
KEARNEY *      SUNNY     73  46  38 S10       30.07F
YORK           MOSUNNY   68  48  49 CALM      30.10F
$$

NEZ011>018-030>034-042>045-012000-
NORTHEAST NEBRASKA

CITY           SKY/WX    TMP DP  RH WIND       PRES   REMARKS
NORFOLK        MOSUNNY   70  50  49 VRB7      30.08F
ALBION         SUNNY     69  49  48 SE7       30.09F
BLAIR          CLOUDY    66  56  71 CALM      30.10F
FREMONT        HAZE      65  54  67 E7        30.11F VSB 1/2
TEKAMAH        CLOUDY    68  54  60 CALM      30.09F
WAYNE          CLOUDY    67  54  63 SE6       30.10F
$$

NEZ050>053-065>068-078-088>093-012000-
SOUTHEAST NEBRASKA

CITY           SKY/WX    TMP DP  RH WIND       PRES   REMARKS
LINCOLN        PTSUNNY   70  54  56 S6        30.10F
OMAHA EPPLEY   PTSUNNY   67  56  67 CALM      30.10F
BEATRICE       MOSUNNY   68  54  60 CALM      30.10F
FALLS CITY     CLOUDY    65  56  72 W3        30.10F
NEBRASKA CITY  CLOUDY    64  52  67 CALM      30.11F
PLATTSMOUTH    CLOUDY    65  53  65 NE3       30.11F
$$

NEZ044-045-051>053-067-012000-
OMAHA AREA

CITY           SKY/WX    TMP DP  RH WIND       PRES   REMARKS
OMAHA EPPLEY   PTSUNNY   67  56  67 CALM      30.10F
BLAIR          CLOUDY    66  56  71 CALM      30.10F
FREMONT        HAZE      65  54  67 E7        30.11F VSB 1/2
MILLARD        CLOUDY    65  55  70 CALM      30.10F
OFFUTT AFB     CLOUDY    66  57  73 N2        30.09F
PLATTSMOUTH    CLOUDY    65  53  65 NE3       30.11F
WAHOO          HAZE      69  52  54 E5        30.10F VSB 3/4
$$



USA.gov is the U.S. government's official web portal to all federal, state and local government web resources and services.